This is the latest recevied weather packets stored in our database for station/object KI8L. If no packets are shown the sender has not sent any weather packets the latest 10 day(s).
| Time | Temp. | Humidity | Pressure | Rain* | Wind** | Luminosity | Snow |
|---|---|---|---|---|---|---|---|
| 1777664330 | 5° C | 99% | 1015.3 hPa | 0 mm | - | 77 W/m² | - |
| 1777664029 | 5.56° C | 99% | 1015.2 hPa | 0 mm | - | 138 W/m² | - |
| 1777663726 | 5° C | 99% | 1015 hPa | 1.27 mm | - | 115 W/m² | - |
| 1777663423 | 5° C | 99% | 1015 hPa | 1.27 mm | - | 113 W/m² | - |
| 1777663120 | 5° C | 99% | 1015.1 hPa | 0 mm | - | 92 W/m² | - |
| 1777662817 | 5° C | 99% | 1015 hPa | 0 mm | - | 77 W/m² | - |
| 1777662514 | 5.56° C | 99% | 1014.9 hPa | 0 mm | - | 85 W/m² | - |
| 1777662210 | 5.56° C | 99% | 1015 hPa | 0 mm | - | 64 W/m² | - |
| 1777661905 | 5.56° C | 99% | 1014.9 hPa | 0 mm | - | 93 W/m² | - |
| 1777661602 | 5.56° C | 99% | 1015 hPa | 1.78 mm | - | 143 W/m² | - |
| 1777661298 | 5.56° C | 99% | 1014.8 hPa | 1.78 mm | - | 120 W/m² | - |
| 1777660994 | 5.56° C | 99% | 1014.8 hPa | 1.27 mm | - | 112 W/m² | - |
| 1777660690 | 5.56° C | 99% | 1014.6 hPa | 1.27 mm | - | 74 W/m² | - |
| 1777660387 | 5.56° C | 99% | 1014.6 hPa | 0 mm | - | 136 W/m² | - |
| 1777660083 | 5° C | 99% | 1014.8 hPa | 0 mm | - | 142 W/m² | - |
| 1777659780 | 5.56° C | 99% | 1014.7 hPa | 1.78 mm | - | 117 W/m² | - |
| 1777659477 | 5° C | 99% | 1014.5 hPa | 1.78 mm | - | 83 W/m² | - |
| 1777659174 | 5° C | 99% | 1014.4 hPa | 0 mm | - | 59 W/m² | - |
| 1777658871 | 5.56° C | 99% | 1014.3 hPa | 0 mm | - | 79 W/m² | - |
| 1777658567 | 5° C | 99% | 1014.4 hPa | 0 mm | - | 47 W/m² | - |
| 1777658264 | 5.56° C | 99% | 1014.4 hPa | 0 mm | - | 33 W/m² | - |
| 1777657962 | 5.56° C | 99% | 1014.4 hPa | 0 mm | - | 45 W/m² | - |
| 1777657658 | 5.56° C | 99% | 1014.5 hPa | 0 mm | - | 42 W/m² | - |
| 1777657355 | 5.56° C | 99% | 1014.1 hPa | 1.27 mm | - | 61 W/m² | - |
| 1777657053 | 5.56° C | 99% | 1014.2 hPa | 1.27 mm | - | 59 W/m² | - |
* Rain latest hour (hover to see other rain measurements)
** Current wind speed in m/s (hover to see current wind gust speed)